Regional Weather Roundup
Issued by NWS

Home | Current Version | Previous Version | Graphics & Text | Print | Product List | Glossary Off
Versions: 1 2 3 4 5 6 7 8 9 10 11 12 13 14 15 16 17 18 19 20 21 22 23 24 25 26 27 28 29 30 31 32 33 34 35 36 37 38 39 40 41 42 43 44 45 46 47 48 49 50

000
ASUS43 KLSX 052059
RWRMO

WEATHER SUMMARY FOR MISSOURI
NATIONAL WEATHER SERVICE SPRINGFIELD MO
400 PM CDT TUE MAY 05 2015

NOTE: "FAIR" INDICATES FEW OR NO CLOUDS BELOW 12,000 FEET WITH NO
       SIGNIFICANT WEATHER AND/OR OBSTRUCTIONS TO VISIBILITY.
       CURRENT SKY AND/OR WEATHER CONDITIONS ARE NOT AVAILABLE FOR
       CHILLICOTHE AND FARMINGTON.

MOZ001>031-035>038-043-044-053-054-052200-
...NORTHERN AND WESTERN MISSOURI...

CITY           SKY/WX    TMP DP  RH WIND       PRES   REMARKS
KANSAS CTY INT CLOUDY    79  56  45 S8        30.03F
KANSAS C DTWN  PTSUNNY   82  56  40 S14       30.02F
LEE`S SUMMIT   PTSUNNY   80  55  42 VRB6G16   30.04F
ST JOSEPH      PTSUNNY   80  56  43 S14       30.03F
CHILLICOTHE      N/A     82  56  40 VRB7      30.05F
KIRKSVILLE     PTSUNNY   80  61  52 VRB5      30.09F

$$
MOZ066>068-077>081-088>096-101>105-052200-
...SOUTHWEST MISSOURI...

CITY           SKY/WX    TMP DP  RH WIND       PRES   REMARKS
SPRINGFIELD    PTSUNNY   80  57  45 S15G25    30.07F
JOPLIN         PTSUNNY   81  60  48 S23G30    30.04F

$$
MOZ032>034-039>042-045>050-055>058-069>072-052200-
...CENTRAL MISSOURI...

CITY           SKY/WX    TMP DP  RH WIND       PRES   REMARKS
COLUMBIA       PTSUNNY   73  61  65 N5        30.10F
JEFFERSON CITY PTSUNNY   81  57  43 SE12      30.08F
ROLLA          PTSUNNY   79  60  52 S10       30.10F
SEDALIA        PTSUNNY   81  62  52 NE7       30.07F
OSAGE BEACH    PTSUNNY   82  61  47 S10       30.09F

$$
MOZ051-052-059>065-052200-
...EAST CENTRAL MISSOURI...

CITY           SKY/WX    TMP DP  RH WIND       PRES   REMARKS
ST LOUIS INTL  PTSUNNY   82  54  37 S14       30.13F
SPIRIT OF STL  PTSUNNY   80  57  45 S10       30.11F
ST CHARLES     MOSUNNY   82  55  39 S15G23    30.10F

$$
MOZ072>076-082>087-097>100-106>115-052200-
...SOUTH CENTRAL AND SOUTHEAST MISSOURI...

CITY           SKY/WX    TMP DP  RH WIND       PRES   REMARKS
CAPE GIRARDEAU CLOUDY    74  59  59 W13       30.14F
FARMINGTON     MOSUNNY   81  59  47 S8        30.18F
POPLAR BLUFF   MOSUNNY   84  57  39 S10       30.11F
WEST PLAINS    MOSUNNY   79  54  41 S10       30.14F

$$


USA.gov is the U.S. government's official web portal to all federal, state and local government web resources and services.